Palacios, TX

1:31 PM CST on January 21, 2018 (GMT -0600)
Palacios Municipal

Weather History for KPSX - November, 2014

Change the Weather History Date:

Thursday, November 20, 2014

  Actual Average Record
Temperature  
Mean Temperature 63 °F -  
Max Temperature 72 °F 69 °F 85 °F (1979)
Min Temperature 54 °F 50 °F 31 °F (1969)
Degree Days  
Heating Degree Days 2    
Growing Degree Days 13 (Base 50)    
Moisture  
Dew Point 60 °F    
Average Humidity 88    
Maximum Humidity 97    
Minimum Humidity 66    
Precipitation  
Precipitation 0.16 in - - ()
Sea Level Pressure  
Sea Level Pressure 30.10 in    
Wind  
Wind Speed 7 mph (ESE)    
Max Wind Speed 14 mph    
Max Gust Speed -    
Visibility 8 miles    
Events Rain    
Averages and records for this station are not official NWS values.
T = Trace of Precipitation, MM = Missing Value Source: NWS Daily Summary

Daily Weather History Graph

Daily Weather History Graph

Search for Another Location

Airport or City:

Trip Planner

Search our weather history database for the weather conditions in past years. The results will help you decide how hot, cold, wet, or windy it might be!

Date:

Astronomy

Nov. 20, 2014 Rise Set
Actual Time 6:51 AM CST 5:29 PM CST
Civil Twilight 6:26 AM CST 5:54 PM CST
Nautical Twilight 5:57 AM CST 6:23 PM CST
Astronomical Twilight 5:29 AM CST 6:51 PM CST
Moon 4:57 AM CST (11/20) 4:25 PM CST (11/20)
Length of Visible Light 11h 27m
Length of Day
10h 37m
Waning Crescent, 4% of the Moon is Illuminated
Nov 20
Waning Crescent
Nov 22
New
Nov 29
First Quarter
Dec 6
Full
Dec 14
Last Quarter

Hourly Weather History & Observations

Time (CST) Temp. Dew Point Humidity Pressure Visibility Wind Dir Wind Speed Gust Speed Precip Events Conditions
12:53 AM 54.0 °F 51.1 °F 90% 30.19 in 10.0 mi ENE 3.5 mph - N/A   Scattered Clouds
1:53 AM 55.0 °F 52.0 °F 89% 30.18 in 10.0 mi ENE 5.8 mph - N/A   Mostly Cloudy
2:53 AM 55.9 °F 53.1 °F 90% 30.16 in 10.0 mi East 4.6 mph - N/A   Overcast
3:53 AM 57.0 °F 54.0 °F 89% 30.14 in 10.0 mi East 5.8 mph - N/A   Overcast
4:53 AM 57.0 °F 54.0 °F 89% 30.13 in 10.0 mi East 3.5 mph - N/A   Mostly Cloudy
5:53 AM 57.0 °F 54.0 °F 89% 30.13 in 10.0 mi East 5.8 mph - N/A   Mostly Cloudy
6:53 AM 59.0 °F 57.0 °F 93% 30.14 in 10.0 mi ESE 6.9 mph - N/A   Mostly Cloudy
7:53 AM 61.0 °F 59.0 °F 93% 30.15 in 10.0 mi East 4.6 mph - N/A   Overcast
8:53 AM 66.9 °F 62.1 °F 84% 30.17 in 10.0 mi Calm Calm - N/A   Overcast
9:53 AM 71.1 °F 60.1 °F 68% 30.17 in 10.0 mi SSE 12.7 mph - N/A   Mostly Cloudy
10:53 AM 72.0 °F 60.1 °F 66% 30.16 in 10.0 mi SE 13.8 mph - N/A   Overcast
11:53 AM 71.1 °F 61.0 °F 70% 30.13 in 10.0 mi SSE 12.7 mph - N/A   Overcast
12:53 PM 71.1 °F 59.0 °F 66% 30.09 in 10.0 mi SE 12.7 mph - N/A   Overcast
1:53 PM 68.0 °F 61.0 °F 78% 30.06 in 10.0 mi SE 9.2 mph - 0.00 in Rain Light Rain
2:53 PM 68.0 °F 60.1 °F 76% 30.06 in 10.0 mi ESE 8.1 mph - 0.00 in   Overcast
3:53 PM 66.0 °F 62.1 °F 87% 30.05 in 4.0 mi SE 8.1 mph - 0.00 in Rain Light Rain
4:49 PM 64.4 °F 62.6 °F 94% 30.06 in 2.5 mi ESE 8.1 mph - 0.03 in Rain Rain
4:53 PM 64.9 °F 62.1 °F 90% 30.06 in 3.0 mi ESE 6.9 mph - 0.03 in Rain Light Rain
5:08 PM 64.9 °F 62.1 °F 90% 30.07 in 3.0 mi SE 9.2 mph - 0.01 in Rain Light Rain
5:26 PM 63.0 °F 61.0 °F 93% 30.07 in 5.0 mi SSW 5.8 mph - 0.02 in Rain Light Rain
5:42 PM 63.0 °F 62.1 °F 97% 30.06 in 2.5 mi SE 11.5 mph - 0.07 in Rain Heavy Rain
5:48 PM 64.4 °F 62.6 °F 94% 30.06 in 3.0 mi SE 9.2 mph - 0.08 in Rain Rain
5:53 PM 64.0 °F 62.1 °F 93% 30.06 in 4.0 mi East 4.6 mph - 0.09 in Rain Rain
6:09 PM 64.0 °F 63.0 °F 96% 30.06 in 7.0 mi Calm Calm - 0.00 in Rain Light Rain
6:53 PM 64.9 °F 63.0 °F 93% 30.06 in 10.0 mi ESE 10.4 mph - 0.03 in Rain Light Rain
7:53 PM 64.9 °F 63.0 °F 93% 30.06 in 10.0 mi ESE 11.5 mph - 0.00 in   Overcast
8:53 PM 64.9 °F 63.0 °F 93% 30.08 in 10.0 mi SE 9.2 mph - N/A   Overcast
9:53 PM 64.9 °F 63.0 °F 93% 30.09 in 5.0 mi South 3.5 mph - 0.01 in Rain Light Rain
10:20 PM 64.4 °F 62.6 °F 94% 30.08 in 10.0 mi SSE 9.2 mph - N/A   Overcast
10:53 PM 64.0 °F 63.0 °F 96% 30.07 in 9.0 mi SSE 9.2 mph - 0.00 in   Mostly Cloudy
11:53 PM 64.9 °F 63.0 °F 93% 30.07 in 9.0 mi SE 6.9 mph - N/A   Mostly Cloudy